[[{"header":{"parameterUnit":"m.s-1","parameterCategory":1,"la1":30.2991,"la2":30.254,"lo1":-89.0895,"lo2":-89.0444,"dy":0.0017,"dx":0.0017,"nx":28,"ny":28,"refTime":"2025-04-21T03:00:00:Z","depth":0,"parameterNumber":2,"parameterNumberName":"U-component_of_WINDS"},"data":[0,0,0,0,0,0,0,0,0,0,0,0,0,0,0,0,0,0,0,0,0,0,0,0,0,0,0,0,0,0,0,0,0,0,0,0,0,0,0,0,0,0,0,0,0,0,0,0,0,0,0,0,0,0,0,0,0,0,-2.9951,-2.9952,0,-3.0061,-3.0062,-3.0064,-3.0069,-3.0068,-3.0067,-3.0066,-3.0178,-3.0182,-3.0186,0,0,0,0,0,0,0,0,0,0,0,0,0,-2.9746,-2.975,-2.9951,-2.9952,-2.9954,-3.0061,-3.0062,-3.0064,-3.007,-3.0068,-3.0066,-3.0065,-3.0176,-3.0181,-3.0186,0,0,0,0,0,0,0,0,0,0,0,0,0,-2.9844,-2.9751,-2.9951,-2.997,-2.9972,-3.0061,-3.0062,-3.0064,-3.007,-3.0068,-3.0066,-3.0064,-3.0175,-3.0181,-3.0187,-3.0264,0,0,-3.0206,-3.0209,0,0,0,0,0,0,0,0,-2.9838,-2.9851,-2.9965,-2.9968,-2.9972,-3.005,-3.0031,-3.0131,-3.007,-3.0033,-3.0066,-3.0063,-3.0137,-3.0146,-3.0171,-3.0269,-3.0274,-3.0207,-3.021,-3.0213,-3.0215,0,0,0,0,0,0,0,-2.9831,-2.9846,-2.9995,-2.9967,-2.9971,-2.9973,-2.9984,-3.005,-3.0094,-3.0036,-3.0037,-3.005,-3.0138,-3.0165,-3.0173,-3.0275,-3.0206,-3.0212,-3.0216,-3.0218,-3.0443,-3.0445,0,0,0,0,0,0,-2.9821,-2.9841,-2.9991,-2.9998,-2.9899,-2.9978,-2.9991,-3.0026,-3.0093,-3.0102,-3.0051,-3.0049,-3.0155,-3.0166,-3.0177,-3.0271,-3.0213,-3.0219,-3.0222,-3.0441,-3.0443,-3.0446,0,0,0,0,0,0,-2.9816,-2.9834,-2.9987,-2.992,-2.9939,-2.9983,-3.0023,-3.003,-3.0056,-3.0105,-3.0113,-3.007,-3.0154,-3.0168,-3.0242,-3.0275,-3.0222,-3.0227,-3.0438,-3.0441,-3.0444,-3.046,0,0,0,0,0,0,-2.9811,-2.9833,-2.9862,-2.992,-2.9943,-3.005,-3.0025,-3.0033,-3.0067,-3.0066,-3.0125,-3.0133,-3.0153,-3.0233,-3.0248,-3.0283,-3.0232,-3.0435,-3.0439,-3.0443,-3.0457,-3.0464,-3.0469,0,0,0,0,0,-2.9803,-2.9862,-2.9864,-2.9882,-2.998,-3.0052,-3.0064,-3.0087,-3.007,-3.01,-3.0131,-3.0131,-3.027,-3.024,-3.0258,-3.0295,-3.0433,-3.0438,-3.0443,-3.0454,-3.0462,-3.0469,0,0,0,0,0,0,-2.9806,-2.987,-2.9872,-2.9952,-2.9996,-3.0052,-3.0091,-3.0095,-3.0145,-3.0142,-3.0168,-3.0181,-3.0254,-3.0282,-3.0249,-3.0373,-3.0349,-3.0358,-3.0352,-3.036,-3.0366,-3.0357,-3.0237,0,0,0,0,0,-2.9816,-2.9869,-2.9922,-2.9987,-3.0009,-3.0046,-3.0078,-3.0092,-3.0139,-3.0158,-3.0194,-3.024,-3.0294,-3.0329,-3.0381,-3.0462,-3.0474,-3.0496,-3.0502,-3.0507,-3.0514,-3.0558,-3.0568,-3.0462,-3.0462,-3.0462,0,0,-2.9837,-2.9878,-2.991,-2.9988,-3.0024,-3.0078,-3.0062,-3.0119,-3.016,-3.0166,-3.0238,-3.0267,-3.032,-3.0397,-3.0433,-3.0423,-3.0546,-3.0513,-3.0517,-3.0521,-3.0565,-3.0575,-3.0583,-3.0465,-3.0465,-3.0464,0,0,-2.9902,-2.9939,-2.9997,-3.0034,-3.0089,-3.0114,-3.0128,-3.0184,-3.0203,-3.0276,-3.0282,-3.0331,-3.0423,-3.046,-3.0492,-3.0573,-3.0574,-3.0589,-3.0621,-3.0664,-3.0673,-3.068,-3.0709,-3.0718,-3.0596,-3.0596,-3.0596,0,-2.9921,-3.0002,-3.0026,-3.0084,-3.0118,-3.0128,-3.0187,-3.0221,-3.0291,-3.0314,-3.0302,-3.0418,-3.0455,-3.0541,-3.0561,-3.0586,-3.0602,-3.0582,-3.067,-3.0678,-3.0685,-3.0712,-3.0723,-3.0597,-3.0597,-3.0597,-3.0597,0,-3.0023,-3.0079,-3.0119,-3.0186,-3.0225,-3.0283,-3.0316,-3.0353,-3.0364,-3.039,-3.0464,-3.0508,-3.057,-3.0592,-3.0603,-3.068,-3.0672,-3.0664,-3.0641,-3.0696,-3.0722,-3.0733,-3.0599,-3.0599,-3.0598,-3.0598,0,0,-3.0091,-3.0172,-3.0186,-3.0217,-3.0279,-3.0323,-3.0382,-3.0442,-3.0473,-3.0521,-3.0571,-3.0649,-3.0643,-3.0678,-3.0694,-3.0732,-3.0793,-3.072,-3.0722,-3.0731,-3.0881,-3.0885,-3.0896,-3.0795,-3.0797,-3.0799,-3.0876,0,-3.0163,-3.0267,-3.0291,-3.0381,-3.0433,-3.0444,-3.0495,-3.0539,-3.0565,-3.0613,-3.0643,-3.0698,-3.0686,-3.0707,-3.0746,-3.0777,-3.0823,-3.0772,-3.0841,-3.0843,-3.0826,-3.091,-3.0915,-3.0985,-3.0886,-3.0888,-3.0889,0,-3.026,-3.031,-3.0405,-3.0461,-3.0483,-3.0529,-3.0587,-3.0633,-3.0683,-3.07,-3.074,-3.0752,-3.0813,-3.0788,-3.0874,-3.0839,-3.0868,-3.0889,-3.0892,-3.0898,-3.0868,-3.0917,-3.1008,-3.1018,-3.0906,-3.0904,-3.0903,0,-3.0299,-3.0391,-3.046,-3.0486,-3.0552,-3.0584,-3.0614,-3.0662,-3.0697,-3.0748,-3.077,-3.0828,-3.0859,-3.0903,-3.093,-3.0909,-3.1013,-3.099,-3.1028,-3.1027,-3.1048,-3.1046,-3.1143,-3.107,-3.1069,-3.1069,-3.1069,0,-3.0376,-3.0433,-3.0478,-3.052,-3.0585,-3.0613,-3.0676,-3.0706,-3.0749,-3.0797,-3.081,-3.0855,-3.0889,-3.0938,-3.096,-3.1028,-3.1042,-3.1057,-3.1061,-3.1055,-3.1053,-3.1074,-3.1069,-3.1072,-3.1071,-3.1071,-3.107,0,-3.043,-3.0463,-3.0538,-3.0596,-3.0611,-3.0657,-3.0706,-3.0747,-3.0775,-3.0835,-3.0851,-3.0894,-3.0953,-3.0985,-3.1059,-3.1074,-3.1149,-3.1152,-3.1132,-3.1134,-3.117,-3.1165,-3.1283,-3.1299,-3.1215,-3.1216,-3.1216,0,-3.0476,-3.052,-3.0583,-3.0616,-3.0646,-3.07,-3.0735,-3.0765,-3.0802,-3.0863,-3.0897,-3.0957,-3.1006,-3.1101,-3.1138,-3.1195,-3.1199,-3.1236,-3.1207,-3.1199,-3.1198,-3.1195,-3.1199,-3.124,-3.1241,-3.1242,-3.1242,0,-3.0554,-3.0568,-3.0619,-3.0677,-3.0719,-3.0765,-3.0811,-3.0838,-3.0875,-3.0916,-3.0976,-3.1015,-3.1091,-3.115,-3.1211,-3.1241,-3.1248,-3.1251,-3.1263,-3.1256,-3.1242,-3.1249,-3.1144,-3.1248,-3.1248,-3.1247,-3.1247,-3.1247,-3.0605,-3.0645,-3.0695,-3.0752,-3.079,-3.0833,-3.0874,-3.0907,-3.0958,-3.1022,-3.1037,-3.1101,-3.1151,-3.1232,-3.1265,-3.1316,-3.1308,-3.1325,-3.1329,-3.1333,-3.1334,-3.1235,-3.1327,-3.1327,-3.1327,-3.1326,-3.1326,0,-3.0683,-3.0716,-3.0768,-3.0832,-3.0877,-3.088,-3.0931,-3.0968,-3.1025,-3.1071,-3.1119,-3.119,-3.1248,-3.129,-3.1349,-3.1382,-3.1387,-3.1396,-3.1394,-3.1401,-3.1337,-3.1321,-3.1392,-3.1392,-3.1392,-3.1392,-3.1392,-3.1392,-3.0729,-3.0797,-3.0817,-3.0904,-3.0937,-3.0999,-3.1028,-3.1068,-3.1105,-3.1182,-3.1231,-3.1258,-3.1303,-3.1366,-3.142,-3.1431,-3.1451,-3.1461,-3.1472,-3.1412,-3.1405,-3.1398,-3.1383,-3.1465,-3.1465,-3.1531,-3.1532,-3.1532]},{"header":{"parameterUnit":"m.s-1","parameterCategory":1,"la1":30.2991,"la2":30.254,"lo1":-89.0895,"lo2":-89.0444,"dy":0.0017,"dx":0.0017,"nx":28,"ny":28,"refTime":"2025-04-21T03:00:00:Z","depth":0,"parameterNumber":3,"parameterNumberName":"V-component_of_WINDS"},"data":[0,0,0,0,0,0,0,0,0,0,0,0,0,0,0,0,0,0,0,0,0,0,0,0,0,0,0,0,0,0,0,0,0,0,0,0,0,0,0,0,0,0,0,0,0,0,0,0,0,0,0,0,0,0,0,0,0,0,3.0121,3.0121,0,3.0194,3.0195,3.0196,3.0196,3.0195,3.0194,3.0193,3.0265,3.0268,3.027,0,0,0,0,0,0,0,0,0,0,0,0,0,2.9977,2.998,3.0121,3.0121,3.0122,3.0194,3.0195,3.0196,3.0196,3.0195,3.0193,3.0192,3.0264,3.0267,3.0271,0,0,0,0,0,0,0,0,0,0,0,0,0,3.0044,2.9981,3.012,3.0131,3.0133,3.0194,3.0195,3.0196,3.0196,3.0195,3.0193,3.0192,3.0263,3.0267,3.0271,3.0326,0,0,3.0284,3.0286,0,0,0,0,0,0,0,0,3.004,3.0049,3.0128,3.013,3.0132,3.0184,3.0171,3.024,3.0196,3.0172,3.0193,3.0191,3.0239,3.0245,3.0262,3.0329,3.0332,3.0284,3.0287,3.0289,3.029,0,0,0,0,0,0,0,3.0036,3.0046,3.015,3.013,3.0132,3.0131,3.0139,3.0184,3.0212,3.0174,3.0174,3.0183,3.024,3.0258,3.0264,3.0333,3.0284,3.0288,3.0291,3.0292,3.045,3.0452,0,0,0,0,0,0,3.0029,3.0042,3.0147,3.0152,3.0082,3.0135,3.0144,3.0169,3.0212,3.0217,3.0184,3.0183,3.0251,3.0259,3.0266,3.0334,3.0289,3.0293,3.0295,3.0449,3.0451,3.0452,0,0,0,0,0,0,3.0026,3.0039,3.0144,3.0097,3.0111,3.0139,3.0167,3.0171,3.0189,3.022,3.0225,3.0198,3.0251,3.026,3.0312,3.0336,3.0295,3.0298,3.0447,3.0449,3.0452,3.0469,0,0,0,0,0,0,3.0022,3.0038,3.0059,3.0098,3.0113,3.0189,3.0169,3.0174,3.0197,3.0196,3.0234,3.0239,3.025,3.0305,3.0316,3.0341,3.0302,3.0445,3.0448,3.0451,3.0466,3.0472,3.0477,0,0,0,0,0,3.0017,3.006,3.006,3.0073,3.0141,3.019,3.0199,3.0213,3.0199,3.0221,3.024,3.0237,3.0332,3.0311,3.0322,3.035,3.0443,3.0447,3.0451,3.0464,3.0471,3.0477,0,0,0,0,0,0,3.0022,3.0065,3.0066,3.0123,3.0153,3.019,3.0218,3.0219,3.0253,3.025,3.0265,3.0273,3.0325,3.0342,3.0317,3.0405,3.0386,3.0392,3.0392,3.0399,3.0404,3.0398,3.0305,0,0,0,0,0,3.003,3.0068,3.0103,3.015,3.0165,3.0189,3.0211,3.0219,3.0251,3.0263,3.0287,3.0317,3.0353,3.0377,3.0412,3.0469,3.0478,3.0494,3.0499,3.0503,3.0508,3.054,3.0548,3.0465,3.0465,3.0465,0,0,3.0046,3.0075,3.0097,3.0152,3.0176,3.0214,3.02,3.024,3.0269,3.0269,3.0319,3.0338,3.0372,3.0427,3.0452,3.0443,3.0533,3.0508,3.0511,3.0514,3.0545,3.0553,3.056,3.0467,3.0467,3.0466,0,0,3.0096,3.0121,3.0164,3.0189,3.0227,3.0243,3.0253,3.029,3.0303,3.0354,3.0355,3.0389,3.0451,3.0476,3.0497,3.0558,3.0556,3.0569,3.0595,3.0626,3.0633,3.0639,3.0661,3.0669,3.0574,3.0574,3.0574,0,3.0111,3.017,3.0185,3.0227,3.025,3.0254,3.0297,3.032,3.0367,3.0383,3.0373,3.0453,3.0476,3.0537,3.0552,3.0568,3.0581,3.0564,3.0631,3.0637,3.0643,3.0664,3.0672,3.0575,3.0575,3.0575,3.0575,0,3.0187,3.0228,3.0257,3.0304,3.0332,3.0374,3.0395,3.042,3.0426,3.0443,3.0495,3.0524,3.0565,3.058,3.0586,3.0643,3.0636,3.0628,3.0609,3.0652,3.0672,3.068,3.0577,3.0576,3.0576,3.0576,0,0,3.0241,3.0297,3.0308,3.033,3.0372,3.0404,3.0446,3.0488,3.051,3.0542,3.0578,3.0632,3.0625,3.0649,3.0657,3.0685,3.0732,3.0674,3.0675,3.0684,3.0797,3.0803,3.0812,3.0732,3.0733,3.0735,3.0795,0,3.0296,3.0372,3.0388,3.0453,3.0491,3.0496,3.0533,3.0562,3.058,3.0614,3.0632,3.067,3.0658,3.0673,3.07,3.0721,3.0755,3.0716,3.0765,3.0766,3.0756,3.0823,3.0829,3.0884,3.0802,3.0804,3.0805,0,3.037,3.0406,3.0476,3.0515,3.0531,3.0564,3.0604,3.0637,3.0671,3.0682,3.0709,3.0715,3.0758,3.0737,3.0798,3.0771,3.0792,3.0805,3.0807,3.0812,3.0788,3.083,3.0902,3.091,3.0817,3.0816,3.0815,0,3.0403,3.0469,3.052,3.0538,3.0584,3.0608,3.0628,3.066,3.0685,3.072,3.0736,3.0775,3.0797,3.0827,3.0843,3.0826,3.0903,3.0882,3.0912,3.0912,3.0928,3.0927,3.1005,3.0941,3.0941,3.0941,3.0941,0,3.0463,3.0505,3.0535,3.0567,3.0615,3.0632,3.0679,3.0699,3.0728,3.0763,3.0769,3.0801,3.082,3.0855,3.0868,3.0917,3.0926,3.0936,3.0939,3.0935,3.0934,3.0949,3.0946,3.0943,3.0943,3.0942,3.0942,0,3.0508,3.053,3.0586,3.0625,3.0636,3.067,3.0704,3.0734,3.0752,3.0796,3.0807,3.0834,3.0876,3.0896,3.0947,3.0955,3.1011,3.1011,3.1,3.1001,3.103,3.1027,3.112,3.1134,3.1061,3.1061,3.1062,0,3.0545,3.0578,3.0622,3.0646,3.0668,3.0707,3.0732,3.075,3.0777,3.0819,3.0844,3.0887,3.0922,3.0988,3.1012,3.1051,3.1053,3.1083,3.1058,3.1055,3.1054,3.1052,3.1055,3.1087,3.1087,3.1088,3.1089,0,3.0608,3.0617,3.0655,3.0697,3.0728,3.0761,3.0794,3.0813,3.0836,3.0866,3.0909,3.0936,3.099,3.1032,3.1073,3.1093,3.1095,3.1096,3.1105,3.1102,3.1095,3.11,3.1012,3.1094,3.1093,3.1093,3.1093,3.1092,3.065,3.0681,3.0717,3.0759,3.0786,3.0816,3.0847,3.0869,3.0906,3.0952,3.096,3.1007,3.104,3.1096,3.1118,3.1154,3.1147,3.116,3.1163,3.1167,3.1169,3.1089,3.1162,3.1162,3.1161,3.1161,3.1161,0,3.0715,3.0738,3.0777,3.0823,3.0856,3.0856,3.0893,3.092,3.0961,3.0993,3.1028,3.1078,3.112,3.1147,3.1189,3.1213,3.1215,3.1223,3.1221,3.1226,3.1172,3.1161,3.1221,3.1221,3.1221,3.1221,3.1221,3.1221,3.0752,3.0804,3.0818,3.0883,3.0906,3.0953,3.0973,3.1002,3.1028,3.1084,3.1119,3.1137,3.1167,3.1211,3.1249,3.1256,3.1271,3.128,3.1287,3.1236,3.123,3.1224,3.1213,3.1283,3.1283,3.1338,3.1338,3.1339]}]]